Tracking 31027 objects as of 19-Jul-2025
HD Live streaming from Space Station
objects crossing your sky now

ATLAS F DEB

Track ATLAS F DEB now!
10-day predictions


NORAD ID: 29197
Int'l Code: 1978-047C
Perigee: 539.4 km
Apogee: 3,331.2 km
Inclination: 63.8 °
Period: 125.6 minutes
Semi major axis: 8306 km
RCS: 0.105 m2 (medium)
Launch date: May 13, 1978
Source: United States (US)
Launch site: AIR FORCE WESTERN TEST RANGE (AFWTR)

Note: This is SATELLITE DEBRIS
Your satellite tracking list
IRIDIUM 106
Track 1 satellite(s)




NASA's NSSDC Master Catalog

Two Line Element Set (TLE):
1 29197U 78047C   25199.04596286  .00071946  00000-0  36159-1 0  9992
2 29197  63.7503  47.7139 1680518  16.8813 124.5419 11.46802747718294
Source of the keplerian elements: AFSPC